Time,TemperatureF,DewpointF,PressureIn,WindDirection,WindDirectionDegrees,WindSpeedMPH,WindSpeedGustMPH,Humidity,HourlyPrecipIn,Conditions,Clouds,dailyrainin,SoftwareType,DateUTC
2013-07-20 00:00:00,76.7,65.3,29.70,WNW,289,0.0,4.0,68,0.00,,CLR,0.00,VWS V14.01,2013-07-20 05:00:00,
2013-07-20 00:03:00,76.6,65.3,29.70,West,267,0.0,8.0,68,0.00,,SCT250,0.00,VWS V14.01,2013-07-20 05:03:00,
2013-07-20 00:05:00,76.5,65.2,29.70,West,275,2.0,6.0,68,0.00,,FEW250,0.00,VWS V14.01,2013-07-20 05:05:00,
2013-07-20 00:08:00,76.5,65.2,29.70,WNW,292,1.0,8.0,68,0.00,,SCT250,0.00,VWS V14.01,2013-07-20 05:08:00,
2013-07-20 00:10:00,76.4,65.1,29.70,WNW,296,4.0,8.0,68,0.00,,FEW250,0.00,VWS V14.01,2013-07-20 05:10:00,
2013-07-20 00:13:00,76.4,65.5,29.70,WNW,303,3.0,5.0,69,0.00,,SCT250,0.00,VWS V14.01,2013-07-20 05:13:00,
2013-07-20 00:15:00,76.3,65.4,29.70,NW,311,8.0,8.0,69,0.00,,FEW250,0.00,VWS V14.01,2013-07-20 05:15:00,
2013-07-20 00:18:00,76.1,65.2,29.70,West,281,1.0,8.0,69,0.00,,SCT250,0.00,VWS V14.01,2013-07-20 05:18:00,
2013-07-20 00:20:00,76.0,65.1,29.70,WNW,288,0.0,5.0,69,0.00,,FEW250,0.00,VWS V14.01,2013-07-20 05:20:00,
2013-07-20 00:23:00,75.8,64.9,29.70,WNW,302,3.0,10.0,69,0.00,,SCT250,0.00,VWS V14.01,2013-07-20 05:23:00,
2013-07-20 00:25:00,75.7,65.2,29.70,WNW,286,5.0,10.0,70,0.00,,FEW250,0.00,VWS V14.01,2013-07-20 05:25:00,
2013-07-20 00:28:00,75.5,65.0,29.70,WNW,294,3.0,9.0,70,0.00,,SCT250,0.00,VWS V14.01,2013-07-20 05:28:00,
2013-07-20 00:30:00,75.4,64.9,29.70,WNW,285,5.0,9.0,70,0.00,,FEW250,0.00,VWS V14.01,2013-07-20 05:30:00,
2013-07-20 00:33:00,75.3,64.8,29.70,WNW,294,5.0,9.0,70,0.00,,SCT250,0.00,VWS V14.01,2013-07-20 05:33:00,
2013-07-20 00:35:00,75.3,64.8,29.70,WNW,292,3.0,8.0,70,0.00,,FEW250,0.00,VWS V14.01,2013-07-20 05:35:00,
2013-07-20 00:38:00,75.2,65.2,29.70,NW,304,0.0,9.0,71,0.00,,SCT250,0.00,VWS V14.01,2013-07-20 05:38:00,
2013-07-20 00:40:00,75.2,65.2,29.70,WNW,292,4.0,9.0,71,0.00,,FEW250,0.00,VWS V14.01,2013-07-20 05:40:00,
2013-07-20 00:43:00,75.1,65.1,29.70,West,276,3.0,8.0,71,0.00,,SCT250,0.00,VWS V14.01,2013-07-20 05:43:00,
2013-07-20 00:45:00,75.1,65.1,29.70,WNW,290,1.0,8.0,71,0.00,,FEW250,0.00,VWS V14.01,2013-07-20 05:45:00,
2013-07-20 00:48:00,75.1,65.1,29.70,WNW,302,0.0,9.0,71,0.00,,SCT250,0.00,VWS V14.01,2013-07-20 05:48:00,
2013-07-20 00:50:00,75.1,65.1,29.71,West,281,2.0,8.0,71,0.00,,FEW250,0.00,VWS V14.01,2013-07-20 05:50:00,
2013-07-20 00:53:00,75.0,65.0,29.70,WNW,282,2.0,4.0,71,0.00,,SCT250,0.00,VWS V14.01,2013-07-20 05:53:00,
2013-07-20 00:55:00,74.9,64.9,29.70,NW,313,2.0,4.0,71,0.00,,FEW250,0.00,VWS V14.01,2013-07-20 05:55:00,
2013-07-20 00:58:00,74.8,64.8,29.70,WNW,294,6.0,8.0,71,0.00,,SCT250,0.00,VWS V14.01,2013-07-20 05:58:00,
2013-07-20 01:00:00,74.8,64.8,29.70,West,279,1.0,8.0,71,0.00,,FEW250,0.00,VWS V14.01,2013-07-20 06:00:00,
2013-07-20 01:03:00,74.7,64.7,29.70,NW,308,1.0,8.0,71,0.00,,FEW100,0.00,VWS V14.01,2013-07-20 06:03:00,
2013-07-20 01:05:00,74.6,64.6,29.70,WNW,292,1.0,8.0,71,0.00,,FEW250,0.00,VWS V14.01,2013-07-20 06:05:00,
2013-07-20 01:09:00,74.5,64.5,29.70,WNW,287,0.0,9.0,71,0.00,,FEW100,0.00,VWS V14.01,2013-07-20 06:09:00,
2013-07-20 01:10:00,74.5,64.5,29.70,West,281,2.0,9.0,71,0.00,,FEW250,0.00,VWS V14.01,2013-07-20 06:10:00,
2013-07-20 01:14:00,74.4,64.8,29.70,WNW,300,0.0,7.0,72,0.00,,FEW100,0.00,VWS V14.01,2013-07-20 06:14:00,
2013-07-20 01:15:00,74.4,64.8,29.70,WNW,299,0.0,7.0,72,0.00,,FEW250,0.00,VWS V14.01,2013-07-20 06:15:00,
2013-07-20 01:19:00,74.3,64.7,29.71,WNW,299,1.0,7.0,72,0.00,,FEW100,0.00,VWS V14.01,2013-07-20 06:19:00,
2013-07-20 01:20:00,74.3,64.7,29.71,WNW,299,0.0,7.0,72,0.00,,FEW250,0.00,VWS V14.01,2013-07-20 06:20:00,
2013-07-20 01:24:00,74.1,64.5,29.71,WNW,286,1.0,7.0,72,0.00,,FEW100,0.00,VWS V14.01,2013-07-20 06:24:00,
2013-07-20 01:25:00,74.1,64.5,29.71,WNW,293,2.0,7.0,72,0.00,,FEW250,0.00,VWS V14.01,2013-07-20 06:25:00,
2013-07-20 01:29:00,74.0,64.4,29.71,NW,304,1.0,2.0,72,0.00,,FEW100,0.00,VWS V14.01,2013-07-20 06:29:00,
2013-07-20 01:30:00,73.9,64.3,29.71,WNW,299,1.0,2.0,72,0.00,,FEW250,0.00,VWS V14.01,2013-07-20 06:30:00,
2013-07-20 01:34:00,73.8,64.6,29.71,WNW,302,0.0,5.0,73,0.00,,FEW100,0.00,VWS V14.01,2013-07-20 06:34:00,
2013-07-20 01:35:00,73.8,64.6,29.71,WNW,302,0.0,5.0,73,0.00,,FEW250,0.00,VWS V14.01,2013-07-20 06:35:00,
2013-07-20 01:39:00,73.7,64.5,29.71,NW,308,0.0,2.0,73,0.00,,FEW100,0.00,VWS V14.01,2013-07-20 06:39:00,
2013-07-20 01:40:00,73.7,64.5,29.71,NW,307,0.0,2.0,73,0.00,,CLR,0.00,VWS V14.01,2013-07-20 06:40:00,
2013-07-20 01:44:00,73.6,64.4,29.71,WNW,300,0.0,2.0,73,0.00,,FEW100,0.00,VWS V14.01,2013-07-20 06:44:00,
2013-07-20 01:45:00,73.6,64.4,29.71,WNW,299,0.0,2.0,73,0.00,,CLR,0.00,VWS V14.01,2013-07-20 06:45:00,
2013-07-20 01:49:00,73.5,64.3,29.71,NW,304,0.0,2.0,73,0.00,,FEW100,0.00,VWS V14.01,2013-07-20 06:49:00,
2013-07-20 01:50:00,73.5,64.3,29.71,NW,304,0.0,2.0,73,0.00,,CLR,0.00,VWS V14.01,2013-07-20 06:50:00,
2013-07-20 01:54:00,73.3,64.5,29.71,WNW,292,1.0,6.0,74,0.00,,FEW100,0.00,VWS V14.01,2013-07-20 06:54:00,
2013-07-20 01:55:00,73.3,64.5,29.71,WNW,292,1.0,6.0,74,0.00,,FEW250,0.00,VWS V14.01,2013-07-20 06:55:00,
2013-07-20 01:59:00,73.1,64.3,29.71,WNW,294,0.0,3.0,74,0.00,,FEW100,0.00,VWS V14.01,2013-07-20 06:59:00,
2013-07-20 02:00:00,73.1,64.3,29.71,WNW,294,0.0,3.0,74,0.00,,CLR,0.00,VWS V14.01,2013-07-20 07:00:00,
2013-07-20 02:04:00,72.8,64.0,29.71,WNW,298,0.0,6.0,74,0.00,,CLR,0.00,VWS V14.01,2013-07-20 07:04:00,
2013-07-20 02:05:00,72.8,64.0,29.71,WNW,299,1.0,6.0,74,0.00,,CLR,0.00,VWS V14.01,2013-07-20 07:05:00,
2013-07-20 02:09:00,72.5,64.1,29.71,WNW,292,0.0,2.0,75,0.00,,CLR,0.00,VWS V14.01,2013-07-20 07:09:00,
2013-07-20 02:10:00,72.6,64.2,29.71,WNW,296,0.0,2.0,75,0.00,,FEW250,0.00,VWS V14.01,2013-07-20 07:10:00,
2013-07-20 02:15:00,72.3,63.9,29.71,WNW,301,0.0,1.0,75,0.00,,CLR,0.00,VWS V14.01,2013-07-20 07:15:00,
2013-07-20 02:20:00,72.2,64.2,29.71,NW,322,0.0,2.0,76,0.00,,CLR,0.00,VWS V14.01,2013-07-20 07:20:00,
2013-07-20 02:25:00,72.0,64.0,29.71,WNW,296,0.0,3.0,76,0.00,,CLR,0.00,VWS V14.01,2013-07-20 07:25:00,
2013-07-20 02:30:00,71.9,63.9,29.71,WNW,297,0.0,0.0,76,0.00,,CLR,0.00,VWS V14.01,2013-07-20 07:30:00,
2013-07-20 02:35:00,71.7,64.1,29.71,WNW,298,0.0,2.0,77,0.00,,CLR,0.00,VWS V14.01,2013-07-20 07:35:00,
2013-07-20 02:40:00,71.5,63.9,29.72,NW,306,0.0,1.0,77,0.00,,CLR,0.00,VWS V14.01,2013-07-20 07:40:00,
2013-07-20 02:45:00,71.4,63.8,29.72,NW,313,0.0,0.0,77,0.00,,CLR,0.00,VWS V14.01,2013-07-20 07:45:00,
2013-07-20 02:50:00,71.2,64.0,29.72,WNW,303,0.0,2.0,78,0.00,,CLR,0.00,VWS V14.01,2013-07-20 07:50:00,
2013-07-20 02:55:00,71.0,63.8,29.72,WNW,284,2.0,3.0,78,0.00,,CLR,0.00,VWS V14.01,2013-07-20 07:55:00,
2013-07-20 03:00:00,70.9,63.7,29.72,NW,313,0.0,2.0,78,0.00,,CLR,0.00,VWS V14.01,2013-07-20 08:00:00,
2013-07-20 03:05:00,70.8,63.6,29.72,NW,313,0.0,1.0,78,0.00,,CLR,0.00,VWS V14.01,2013-07-20 08:05:00,
2013-07-20 03:10:00,70.7,63.9,29.72,NW,312,0.0,3.0,79,0.00,,CLR,0.00,VWS V14.01,2013-07-20 08:10:00,
2013-07-20 03:15:00,70.6,63.8,29.72,WNW,295,0.0,0.0,79,0.00,,CLR,0.00,VWS V14.01,2013-07-20 08:15:00,
2013-07-20 03:20:00,70.4,63.6,29.72,WNW,292,0.0,0.0,79,0.00,,CLR,0.00,VWS V14.01,2013-07-20 08:20:00,
2013-07-20 03:25:00,70.3,63.8,29.72,WNW,301,0.0,0.0,80,0.00,,FEW250,0.00,VWS V14.01,2013-07-20 08:25:00,
2013-07-20 03:26:00,70.3,63.8,29.72,WNW,301,0.0,0.0,80,0.00,,CLR,0.00,VWS V14.01,2013-07-20 08:26:00,
2013-07-20 03:30:00,70.1,63.7,29.72,WNW,301,0.0,0.0,80,0.00,,FEW250,0.00,VWS V14.01,2013-07-20 08:30:00,
2013-07-20 03:31:00,70.1,63.7,29.72,WNW,301,0.0,0.0,80,0.00,,CLR,0.00,VWS V14.01,2013-07-20 08:31:00,
2013-07-20 03:35:00,70.1,63.7,29.72,WNW,301,0.0,0.0,80,0.00,,FEW250,0.00,VWS V14.01,2013-07-20 08:35:00,
2013-07-20 03:36:00,70.1,63.7,29.72,WNW,296,0.0,6.0,80,0.00,,CLR,0.00,VWS V14.01,2013-07-20 08:36:00,
2013-07-20 03:40:00,70.1,63.7,29.72,WNW,295,0.0,6.0,80,0.00,,FEW250,0.00,VWS V14.01,2013-07-20 08:40:00,
2013-07-20 03:41:00,70.0,63.5,29.72,WNW,295,0.0,3.0,80,0.00,,CLR,0.00,VWS V14.01,2013-07-20 08:41:00,
2013-07-20 03:45:00,69.9,63.5,29.72,WNW,298,0.0,0.0,80,0.00,,FEW250,0.00,VWS V14.01,2013-07-20 08:45:00,
2013-07-20 03:46:00,69.8,63.4,29.72,WNW,296,0.0,0.0,80,0.00,,CLR,0.00,VWS V14.01,2013-07-20 08:46:00,
2013-07-20 03:50:00,69.6,63.5,29.72,WNW,300,0.0,0.0,81,0.00,,FEW250,0.00,VWS V14.01,2013-07-20 08:50:00,
2013-07-20 03:51:00,69.5,63.4,29.72,WNW,296,0.0,0.0,81,0.00,,CLR,0.00,VWS V14.01,2013-07-20 08:51:00,
2013-07-20 03:55:00,69.4,63.3,29.72,WNW,295,0.0,0.0,81,0.00,,FEW250,0.00,VWS V14.01,2013-07-20 08:55:00,
2013-07-20 03:56:00,69.3,63.2,29.72,WNW,295,0.0,0.0,81,0.00,,CLR,0.00,VWS V14.01,2013-07-20 08:56:00,
2013-07-20 04:00:00,69.3,63.2,29.72,WNW,296,0.0,0.0,81,0.00,,FEW250,0.00,VWS V14.01,2013-07-20 09:00:00,
2013-07-20 04:01:00,69.2,63.1,29.72,WNW,296,0.0,0.0,81,0.00,,CLR,0.00,VWS V14.01,2013-07-20 09:01:00,
2013-07-20 04:05:00,69.1,63.4,29.72,WNW,294,0.0,0.0,82,0.00,,FEW250,0.00,VWS V14.01,2013-07-20 09:05:00,
2013-07-20 04:06:00,69.1,63.4,29.72,WNW,293,0.0,0.0,82,0.00,,CLR,0.00,VWS V14.01,2013-07-20 09:06:00,
2013-07-20 04:10:00,68.9,63.2,29.72,WNW,292,0.0,0.0,82,0.00,,FEW250,0.00,VWS V14.01,2013-07-20 09:10:00,
2013-07-20 04:11:00,68.9,63.2,29.72,WNW,296,0.0,0.0,82,0.00,,CLR,0.00,VWS V14.01,2013-07-20 09:11:00,
2013-07-20 04:15:00,68.8,63.1,29.72,WNW,298,0.0,0.0,82,0.00,,FEW250,0.00,VWS V14.01,2013-07-20 09:15:00,
2013-07-20 04:16:00,68.7,63.3,29.72,WNW,290,0.0,0.0,83,0.00,,CLR,0.00,VWS V14.01,2013-07-20 09:16:00,
2013-07-20 04:20:00,68.6,63.2,29.72,WNW,298,0.0,0.0,83,0.00,,FEW250,0.00,VWS V14.01,2013-07-20 09:20:00,
2013-07-20 04:21:00,68.5,63.1,29.72,WNW,294,0.0,0.0,83,0.00,,CLR,0.00,VWS V14.01,2013-07-20 09:21:00,
2013-07-20 04:25:00,68.5,63.1,29.72,WNW,295,0.0,0.0,83,0.00,,FEW250,0.00,VWS V14.01,2013-07-20 09:25:00,
2013-07-20 04:26:00,68.4,63.0,29.72,WNW,288,3.0,3.0,83,0.00,,CLR,0.00,VWS V14.01,2013-07-20 09:26:00,
2013-07-20 04:30:00,68.3,62.9,29.73,WNW,292,0.0,3.0,83,0.00,,FEW250,0.00,VWS V14.01,2013-07-20 09:30:00,
2013-07-20 04:32:00,68.3,62.9,29.73,WNW,287,0.0,3.0,83,0.00,,CLR,0.00,VWS V14.01,2013-07-20 09:32:00,
2013-07-20 04:35:00,68.3,62.9,29.73,WNW,291,0.0,2.0,83,0.00,,FEW250,0.00,VWS V14.01,2013-07-20 09:35:00,
2013-07-20 04:37:00,68.3,62.9,29.73,WNW,292,0.0,2.0,83,0.00,,CLR,0.00,VWS V14.01,2013-07-20 09:37:00,
2013-07-20 04:40:00,68.3,62.9,29.73,WNW,284,0.0,2.0,83,0.00,,FEW250,0.00,VWS V14.01,2013-07-20 09:40:00,
2013-07-20 04:42:00,68.3,62.9,29.73,WNW,292,0.0,3.0,83,0.00,,CLR,0.00,VWS V14.01,2013-07-20 09:42:00,
2013-07-20 04:45:00,68.3,62.9,29.73,WNW,294,2.0,3.0,83,0.00,,FEW250,0.00,VWS V14.01,2013-07-20 09:45:00,
2013-07-20 04:47:00,68.3,62.9,29.73,WNW,288,2.0,4.0,83,0.00,,CLR,0.00,VWS V14.01,2013-07-20 09:47:00,
2013-07-20 04:50:00,68.2,62.8,29.73,WNW,293,2.0,4.0,83,0.00,,FEW250,0.00,VWS V14.01,2013-07-20 09:50:00,
2013-07-20 04:52:00,68.3,62.6,29.73,WNW,294,0.0,3.0,82,0.00,,CLR,0.00,VWS V14.01,2013-07-20 09:52:00,
2013-07-20 04:55:00,68.3,62.6,29.73,WNW,294,0.0,2.0,82,0.00,,FEW250,0.00,VWS V14.01,2013-07-20 09:55:00,
2013-07-20 04:57:00,68.3,62.6,29.73,WNW,300,0.0,3.0,82,0.00,,CLR,0.00,VWS V14.01,2013-07-20 09:57:00,
2013-07-20 05:00:00,68.3,62.6,29.73,WNW,296,0.0,3.0,82,0.00,,FEW250,0.00,VWS V14.01,2013-07-20 10:00:00,
2013-07-20 05:02:00,68.4,62.7,29.74,WNW,298,0.0,0.0,82,0.00,,FEW045,0.00,VWS V14.01,2013-07-20 10:02:00,
2013-07-20 05:05:00,68.3,62.6,29.74,NW,304,0.0,0.0,82,0.00,,FEW250,0.00,VWS V14.01,2013-07-20 10:05:00,
2013-07-20 05:07:00,68.3,62.6,29.73,WNW,302,0.0,0.0,82,0.00,,FEW045,0.00,VWS V14.01,2013-07-20 10:07:00,
2013-07-20 05:10:00,68.3,62.6,29.73,WNW,298,0.0,0.0,82,0.00,,FEW250,0.00,VWS V14.01,2013-07-20 10:10:00,
2013-07-20 05:12:00,68.3,62.6,29.74,WNW,296,0.0,0.0,82,0.00,,FEW045,0.00,VWS V14.01,2013-07-20 10:12:00,
2013-07-20 05:15:00,68.3,62.6,29.74,WNW,295,0.0,0.0,82,0.00,,FEW250,0.00,VWS V14.01,2013-07-20 10:15:00,
2013-07-20 05:17:00,68.3,62.6,29.74,WNW,292,0.0,0.0,82,0.00,,FEW045,0.00,VWS V14.01,2013-07-20 10:17:00,
2013-07-20 05:20:00,68.3,62.6,29.74,WNW,288,0.0,0.0,82,0.00,,FEW250,0.00,VWS V14.01,2013-07-20 10:20:00,
2013-07-20 05:22:00,68.3,62.6,29.74,WNW,291,0.0,0.0,82,0.00,,FEW045,0.00,VWS V14.01,2013-07-20 10:22:00,
2013-07-20 05:25:00,68.3,62.6,29.74,WNW,290,0.0,4.0,82,0.00,,FEW250,0.00,VWS V14.01,2013-07-20 10:25:00,
2013-07-20 05:27:00,68.2,62.5,29.74,WNW,302,0.0,4.0,82,0.00,,FEW045,0.00,VWS V14.01,2013-07-20 10:27:00,
2013-07-20 05:30:00,68.1,62.4,29.74,WNW,302,0.0,3.0,82,0.00,,FEW250,0.00,VWS V14.01,2013-07-20 10:30:00,
2013-07-20 05:32:00,68.1,62.4,29.74,WNW,302,0.0,0.0,82,0.00,,FEW045,0.00,VWS V14.01,2013-07-20 10:32:00,
2013-07-20 05:35:00,68.1,62.4,29.74,West,275,0.0,0.0,82,0.00,,FEW250,0.00,VWS V14.01,2013-07-20 10:35:00,
2013-07-20 05:37:00,68.1,62.4,29.75,WNW,292,0.0,3.0,82,0.00,,FEW045,0.00,VWS V14.01,2013-07-20 10:37:00,
2013-07-20 05:40:00,68.1,62.4,29.75,WNW,294,0.0,3.0,82,0.00,,FEW250,0.00,VWS V14.01,2013-07-20 10:40:00,
2013-07-20 05:43:00,68.0,62.7,29.75,WNW,293,0.0,0.0,83,0.00,,FEW045,0.00,VWS V14.01,2013-07-20 10:43:00,
2013-07-20 05:45:00,68.0,62.3,29.75,WNW,302,0.0,0.0,82,0.00,,FEW250,0.00,VWS V14.01,2013-07-20 10:45:00,
2013-07-20 05:48:00,67.9,62.2,29.75,WNW,291,0.0,0.0,82,0.00,,FEW045,0.00,VWS V14.01,2013-07-20 10:48:00,
2013-07-20 05:50:00,67.9,62.2,29.75,WNW,296,0.0,0.0,82,0.00,,FEW250,0.00,VWS V14.01,2013-07-20 10:50:00,
2013-07-20 05:53:00,67.8,62.1,29.75,WNW,285,0.0,0.0,82,0.00,,FEW045,0.00,VWS V14.01,2013-07-20 10:53:00,
2013-07-20 05:55:00,67.8,62.1,29.75,West,275,0.0,0.0,82,0.00,,FEW250,0.00,VWS V14.01,2013-07-20 10:55:00,
2013-07-20 05:58:00,67.9,62.2,29.75,West,274,0.0,0.0,82,0.00,,FEW045,0.00,VWS V14.01,2013-07-20 10:58:00,
2013-07-20 06:00:00,67.9,62.2,29.75,WNW,289,0.0,0.0,82,0.00,,FEW250,0.00,VWS V14.01,2013-07-20 11:00:00,
2013-07-20 06:03:00,68.0,62.3,29.75,WNW,284,0.0,0.0,82,0.00,,FEW150,0.00,VWS V14.01,2013-07-20 11:03:00,
2013-07-20 06:05:00,68.0,62.3,29.75,WNW,288,0.0,0.0,82,0.00,,FEW250,0.00,VWS V14.01,2013-07-20 11:05:00,
2013-07-20 06:08:00,68.1,62.4,29.75,WNW,288,2.0,3.0,82,0.00,,FEW150,0.00,VWS V14.01,2013-07-20 11:08:00,
2013-07-20 06:10:00,68.0,62.0,29.75,WNW,292,2.0,3.0,81,0.00,,FEW250,0.00,VWS V14.01,2013-07-20 11:10:00,
2013-07-20 06:13:00,68.0,62.0,29.75,WNW,294,0.0,3.0,81,0.00,,FEW150,0.00,VWS V14.01,2013-07-20 11:13:00,
2013-07-20 06:15:00,68.1,62.1,29.75,WNW,294,0.0,3.0,81,0.00,,CLR,0.00,VWS V14.01,2013-07-20 11:15:00,
2013-07-20 06:18:00,68.0,62.0,29.75,WNW,290,0.0,0.0,81,0.00,,FEW150,0.00,VWS V14.01,2013-07-20 11:18:00,
2013-07-20 06:20:00,68.0,62.3,29.75,WNW,293,0.0,0.0,82,0.00,,FEW250,0.00,VWS V14.01,2013-07-20 11:20:00,
2013-07-20 06:23:00,68.0,62.3,29.75,WNW,288,0.0,0.0,82,0.00,,FEW150,0.00,VWS V14.01,2013-07-20 11:23:00,
2013-07-20 06:25:00,68.0,62.3,29.76,WNW,290,0.0,0.0,82,0.00,,CLR,0.00,VWS V14.01,2013-07-20 11:25:00,
2013-07-20 06:28:00,68.1,62.4,29.76,WNW,289,3.0,4.0,82,0.00,,FEW150,0.00,VWS V14.01,2013-07-20 11:28:00,
2013-07-20 06:30:00,68.1,62.4,29.76,WNW,290,4.0,4.0,82,0.00,,CLR,0.00,VWS V14.01,2013-07-20 11:30:00,
2013-07-20 06:33:00,68.1,62.1,29.76,West,280,2.0,4.0,81,0.00,,FEW150,0.00,VWS V14.01,2013-07-20 11:33:00,
2013-07-20 06:35:00,68.2,62.2,29.76,West,270,0.0,4.0,81,0.00,,FEW250,0.00,VWS V14.01,2013-07-20 11:35:00,
2013-07-20 06:38:00,68.3,62.6,29.76,WNW,290,0.0,4.0,82,0.00,,FEW150,0.00,VWS V14.01,2013-07-20 11:38:00,
2013-07-20 06:40:00,68.3,62.2,29.76,WNW,293,0.0,4.0,81,0.00,,FEW250,0.00,VWS V14.01,2013-07-20 11:40:00,
2013-07-20 06:43:00,68.5,62.5,29.76,WNW,294,3.0,6.0,81,0.00,,FEW150,0.00,VWS V14.01,2013-07-20 11:43:00,
2013-07-20 06:45:00,68.5,62.5,29.76,WNW,292,2.0,6.0,81,0.00,,FEW250,0.00,VWS V14.01,2013-07-20 11:45:00,
2013-07-20 06:49:00,68.6,62.5,29.76,WNW,290,3.0,4.0,81,0.00,,FEW150,0.00,VWS V14.01,2013-07-20 11:49:00,
2013-07-20 06:50:00,68.6,62.5,29.76,West,281,0.0,4.0,81,0.00,,FEW250,0.00,VWS V14.01,2013-07-20 11:50:00,
2013-07-20 06:54:00,68.9,62.8,29.76,WNW,287,4.0,6.0,81,0.00,,FEW150,0.00,VWS V14.01,2013-07-20 11:54:00,
2013-07-20 06:55:00,68.9,62.8,29.76,WNW,284,1.0,6.0,81,0.00,,FEW250,0.00,VWS V14.01,2013-07-20 11:55:00,
2013-07-20 06:59:00,69.1,63.0,29.76,WNW,287,0.0,5.0,81,0.00,,FEW150,0.00,VWS V14.01,2013-07-20 11:59:00,
2013-07-20 07:00:00,69.2,63.1,29.76,WNW,288,0.0,5.0,81,0.00,,FEW250,0.00,VWS V14.01,2013-07-20 12:00:00,
2013-07-20 07:04:00,69.4,63.3,29.77,WNW,300,5.0,5.0,81,0.00,,SCT250,0.00,VWS V14.01,2013-07-20 12:04:00,
2013-07-20 07:05:00,69.4,63.0,29.77,WNW,297,4.0,6.0,80,0.00,,FEW250,0.00,VWS V14.01,2013-07-20 12:05:00,
2013-07-20 07:09:00,69.8,63.4,29.76,West,276,0.0,5.0,80,0.00,,SCT250,0.00,VWS V14.01,2013-07-20 12:09:00,
2013-07-20 07:10:00,69.8,63.4,29.76,West,276,0.0,5.0,80,0.00,,FEW250,0.00,VWS V14.01,2013-07-20 12:10:00,
2013-07-20 07:14:00,70.1,63.3,29.76,WNW,283,0.0,5.0,79,0.00,,SCT250,0.00,VWS V14.01,2013-07-20 12:14:00,
2013-07-20 07:15:00,70.1,63.3,29.76,WNW,283,0.0,4.0,79,0.00,,FEW250,0.00,VWS V14.01,2013-07-20 12:15:00,
2013-07-20 07:19:00,70.4,63.6,29.76,West,275,0.0,2.0,79,0.00,,SCT250,0.00,VWS V14.01,2013-07-20 12:19:00,
2013-07-20 07:20:00,70.4,63.6,29.76,West,274,0.0,2.0,79,0.00,,FEW250,0.00,VWS V14.01,2013-07-20 12:20:00,
2013-07-20 07:24:00,70.8,64.0,29.77,WNW,298,4.0,5.0,79,0.00,,SCT250,0.00,VWS V14.01,2013-07-20 12:24:00,
2013-07-20 07:25:00,70.8,64.0,29.77,WNW,296,0.0,5.0,79,0.00,,FEW250,0.00,VWS V14.01,2013-07-20 12:25:00,
2013-07-20 07:29:00,71.1,64.3,29.77,West,277,2.0,6.0,79,0.00,,SCT250,0.00,VWS V14.01,2013-07-20 12:29:00,
2013-07-20 07:30:00,71.1,64.3,29.77,West,276,2.0,6.0,79,0.00,,FEW250,0.00,VWS V14.01,2013-07-20 12:30:00,
2013-07-20 07:34:00,71.4,64.2,29.77,WNW,299,4.0,7.0,78,0.00,,SCT250,0.00,VWS V14.01,2013-07-20 12:34:00,
2013-07-20 07:35:00,71.4,64.2,29.77,WNW,298,2.0,7.0,78,0.00,,FEW250,0.00,VWS V14.01,2013-07-20 12:35:00,
2013-07-20 07:39:00,71.8,64.2,29.77,West,274,0.0,4.0,77,0.00,,SCT250,0.00,VWS V14.01,2013-07-20 12:39:00,
2013-07-20 07:40:00,71.8,64.2,29.77,West,274,0.0,4.0,77,0.00,,FEW250,0.00,VWS V14.01,2013-07-20 12:40:00,
2013-07-20 07:44:00,72.4,64.8,29.77,West,270,0.0,0.0,77,0.00,,SCT250,0.00,VWS V14.01,2013-07-20 12:44:00,
2013-07-20 07:45:00,72.4,64.8,29.77,West,270,0.0,0.0,77,0.00,,FEW250,0.00,VWS V14.01,2013-07-20 12:45:00,
2013-07-20 07:49:00,72.7,64.7,29.77,West,262,3.0,4.0,76,0.00,,SCT250,0.00,VWS V14.01,2013-07-20 12:49:00,
2013-07-20 07:50:00,72.7,64.7,29.77,West,262,3.0,4.0,76,0.00,,FEW250,0.00,VWS V14.01,2013-07-20 12:50:00,
2013-07-20 07:54:00,73.1,65.1,29.77,West,267,0.0,3.0,76,0.00,,SCT250,0.00,VWS V14.01,2013-07-20 12:54:00,
2013-07-20 07:55:00,73.1,65.1,29.77,West,267,0.0,3.0,76,0.00,,FEW250,0.00,VWS V14.01,2013-07-20 12:55:00,
2013-07-20 07:59:00,73.7,65.3,29.77,West,267,2.0,3.0,75,0.00,,SCT250,0.00,VWS V14.01,2013-07-20 12:59:00,
2013-07-20 08:00:00,73.7,65.3,29.77,West,267,2.0,3.0,75,0.00,,FEW250,0.00,VWS V14.01,2013-07-20 13:00:00,
2013-07-20 08:04:00,74.2,65.4,29.77,West,268,0.0,2.0,74,0.00,,FEW250,0.00,VWS V14.01,2013-07-20 13:04:00,
2013-07-20 08:05:00,74.1,65.3,29.77,West,268,0.0,2.0,74,0.00,,FEW250,0.00,VWS V14.01,2013-07-20 13:05:00,
2013-07-20 08:10:00,74.7,65.5,29.77,West,271,0.0,0.0,73,0.00,,FEW250,0.00,VWS V14.01,2013-07-20 13:10:00,
2013-07-20 08:15:00,75.1,65.9,29.77,West,273,2.0,2.0,73,0.00,,FEW250,0.00,VWS V14.01,2013-07-20 13:15:00,
2013-07-20 08:20:00,75.4,65.8,29.78,NW,314,1.0,4.0,72,0.00,,FEW250,0.00,VWS V14.01,2013-07-20 13:20:00,
2013-07-20 08:25:00,75.5,65.8,29.78,NW,309,0.0,0.0,72,0.00,,FEW250,0.00,VWS V14.01,2013-07-20 13:25:00,
2013-07-20 08:30:00,75.9,65.8,29.78,West,266,0.0,5.0,71,0.00,,FEW250,0.00,VWS V14.01,2013-07-20 13:30:00,
2013-07-20 08:35:00,76.4,65.9,29.78,West,265,0.0,3.0,70,0.00,,FEW250,0.00,VWS V14.01,2013-07-20 13:35:00,
2013-07-20 08:40:00,76.8,65.4,29.78,West,262,0.0,3.0,68,0.00,,FEW250,0.00,VWS V14.01,2013-07-20 13:40:00,
2013-07-20 08:45:00,77.1,66.2,29.78,West,261,0.0,0.0,69,0.00,,FEW250,0.00,VWS V14.01,2013-07-20 13:45:00,
2013-07-20 08:50:00,77.5,65.3,29.78,West,269,0.0,0.0,66,0.00,,FEW250,0.00,VWS V14.01,2013-07-20 13:50:00,
2013-07-20 08:55:00,77.7,65.0,29.78,West,280,3.0,3.0,65,0.00,,FEW250,0.00,VWS V14.01,2013-07-20 13:55:00,
2013-07-20 09:00:00,77.8,64.2,29.78,WNW,288,4.0,6.0,63,0.00,,FEW250,0.00,VWS V14.01,2013-07-20 14:00:00,
2013-07-20 09:05:00,78.1,63.6,29.78,WNW,290,0.0,4.0,61,0.00,,FEW250,0.00,VWS V14.01,2013-07-20 14:05:00,
2013-07-20 09:10:00,78.4,63.8,29.78,NW,306,4.0,4.0,61,0.00,,FEW250,0.00,VWS V14.01,2013-07-20 14:10:00,
2013-07-20 09:15:00,79.1,64.5,29.78,NW,325,0.0,2.0,61,0.00,,FEW250,0.00,VWS V14.01,2013-07-20 14:15:00,
2013-07-20 09:20:00,79.4,64.3,29.78,WSW,245,0.0,0.0,60,0.00,,FEW250,0.00,VWS V14.01,2013-07-20 14:20:00,
2013-07-20 09:21:00,79.5,64.4,29.78,West,261,0.0,4.0,60,0.00,,FEW250,0.00,VWS V14.01,2013-07-20 14:21:00,
2013-07-20 09:25:00,79.6,63.5,29.78,WNW,298,0.0,7.0,58,0.00,,FEW250,0.00,VWS V14.01,2013-07-20 14:25:00,
2013-07-20 09:26:00,79.7,63.6,29.79,NW,310,1.0,7.0,58,0.00,,FEW250,0.00,VWS V14.01,2013-07-20 14:26:00,
2013-07-20 09:30:00,79.9,63.3,29.79,West,269,0.0,2.0,57,0.00,,FEW250,0.00,VWS V14.01,2013-07-20 14:30:00,
2013-07-20 09:31:00,79.8,63.2,29.78,WNW,297,3.0,5.0,57,0.00,,FEW250,0.00,VWS V14.01,2013-07-20 14:31:00,
2013-07-20 09:35:00,79.5,63.4,29.78,West,276,0.0,5.0,58,0.00,,FEW250,0.00,VWS V14.01,2013-07-20 14:35:00,
2013-07-20 09:36:00,79.5,63.4,29.78,West,279,0.0,3.0,58,0.00,,FEW250,0.00,VWS V14.01,2013-07-20 14:36:00,
2013-07-20 09:40:00,79.7,63.1,29.78,NNW,328,0.0,5.0,57,0.00,,FEW250,0.00,VWS V14.01,2013-07-20 14:40:00,
2013-07-20 09:41:00,79.7,63.1,29.78,NNW,328,0.0,5.0,57,0.00,,FEW250,0.00,VWS V14.01,2013-07-20 14:41:00,
2013-07-20 09:45:00,80.0,62.9,29.78,NW,326,0.0,2.0,56,0.00,,FEW250,0.00,VWS V14.01,2013-07-20 14:45:00,
2013-07-20 09:46:00,80.1,63.0,29.78,WNW,299,5.0,6.0,56,0.00,,FEW250,0.00,VWS V14.01,2013-07-20 14:46:00,
2013-07-20 09:50:00,80.0,62.4,29.79,West,259,0.0,6.0,55,0.00,,FEW250,0.00,VWS V14.01,2013-07-20 14:50:00,
2013-07-20 09:51:00,80.1,63.0,29.79,West,271,0.0,4.0,56,0.00,,FEW250,0.00,VWS V14.01,2013-07-20 14:51:00,
2013-07-20 09:55:00,80.3,63.2,29.79,West,268,0.0,4.0,56,0.00,,FEW250,0.00,VWS V14.01,2013-07-20 14:55:00,
2013-07-20 09:56:00,80.4,63.3,29.79,West,279,2.0,4.0,56,0.00,,FEW250,0.00,VWS V14.01,2013-07-20 14:56:00,
2013-07-20 10:00:00,80.4,63.3,29.79,West,267,0.0,3.0,56,0.00,,FEW250,0.00,VWS V14.01,2013-07-20 15:00:00,
2013-07-20 10:01:00,80.6,63.5,29.79,West,271,0.0,3.0,56,0.00,,SCT250,0.00,VWS V14.01,2013-07-20 15:01:00,
2013-07-20 10:05:00,80.7,62.5,29.80,West,271,0.0,3.0,54,0.00,,FEW250,0.00,VWS V14.01,2013-07-20 15:05:00,
2013-07-20 10:06:00,81.0,62.8,29.80,West,271,0.0,0.0,54,0.00,,SCT250,0.00,VWS V14.01,2013-07-20 15:06:00,
2013-07-20 10:10:00,81.5,63.3,29.80,SW,225,0.0,0.0,54,0.00,,FEW250,0.00,VWS V14.01,2013-07-20 15:10:00,
2013-07-20 10:11:00,81.8,62.5,29.80,WNW,284,0.0,0.0,52,0.00,,SCT250,0.00,VWS V14.01,2013-07-20 15:11:00,
2013-07-20 10:15:00,81.8,61.9,29.80,West,277,0.0,2.0,51,0.00,,FEW250,0.00,VWS V14.01,2013-07-20 15:15:00,
2013-07-20 10:16:00,81.9,62.6,29.80,West,270,1.0,2.0,52,0.00,,SCT250,0.00,VWS V14.01,2013-07-20 15:16:00,
2013-07-20 10:20:00,81.7,61.8,29.80,WNW,300,4.0,6.0,51,0.00,,FEW250,0.00,VWS V14.01,2013-07-20 15:20:00,
2013-07-20 10:21:00,81.3,62.5,29.80,WNW,294,0.0,6.0,53,0.00,,SCT250,0.00,VWS V14.01,2013-07-20 15:21:00,
2013-07-20 10:25:00,81.1,62.4,29.80,WNW,297,0.0,4.0,53,0.00,,FEW250,0.00,VWS V14.01,2013-07-20 15:25:00,
2013-07-20 10:27:00,81.4,62.6,29.80,WNW,297,0.0,2.0,53,0.00,,SCT250,0.00,VWS V14.01,2013-07-20 15:27:00,
2013-07-20 10:30:00,81.8,61.4,29.80,WNW,297,0.0,0.0,50,0.00,,FEW250,0.00,VWS V14.01,2013-07-20 15:30:00,
2013-07-20 10:32:00,82.0,62.1,29.80,WNW,297,0.0,0.0,51,0.00,,SCT250,0.00,VWS V14.01,2013-07-20 15:32:00,
2013-07-20 10:35:00,82.5,62.6,29.80,WNW,297,0.0,0.0,51,0.00,,FEW250,0.00,VWS V14.01,2013-07-20 15:35:00,
2013-07-20 10:37:00,83.0,64.1,29.80,WNW,297,0.0,0.0,53,0.00,,SCT250,0.00,VWS V14.01,2013-07-20 15:37:00,
2013-07-20 10:40:00,83.3,63.8,29.80,WNW,297,0.0,0.0,52,0.00,,FEW250,0.00,VWS V14.01,2013-07-20 15:40:00,
2013-07-20 10:42:00,83.3,64.4,29.80,NW,305,0.0,2.0,53,0.00,,SCT250,0.00,VWS V14.01,2013-07-20 15:42:00,
2013-07-20 10:45:00,83.0,64.7,29.80,ENE,76,0.0,2.0,54,0.00,,FEW250,0.00,VWS V14.01,2013-07-20 15:45:00,
2013-07-20 10:47:00,82.0,63.7,29.81,ENE,75,3.0,4.0,54,0.00,,SCT250,0.00,VWS V14.01,2013-07-20 15:47:00,
2013-07-20 10:50:00,81.0,64.3,29.81,East,93,0.0,4.0,57,0.00,,FEW250,0.00,VWS V14.01,2013-07-20 15:50:00,
2013-07-20 10:52:00,80.8,64.7,29.81,East,92,0.0,2.0,58,0.00,,SCT250,0.00,VWS V14.01,2013-07-20 15:52:00,
2013-07-20 10:55:00,81.0,64.3,29.81,East,93,0.0,0.0,57,0.00,,FEW250,0.00,VWS V14.01,2013-07-20 15:55:00,
2013-07-20 10:57:00,80.9,64.2,29.81,East,93,0.0,0.0,57,0.00,,SCT250,0.00,VWS V14.01,2013-07-20 15:57:00,
2013-07-20 11:00:00,80.9,64.8,29.81,ENE,78,0.0,0.0,58,0.00,,FEW250,0.00,VWS V14.01,2013-07-20 16:00:00,
2013-07-20 11:02:00,80.8,65.2,29.81,East,94,0.0,0.0,59,0.00,,FEW040,0.00,VWS V14.01,2013-07-20 16:02:00,
2013-07-20 11:05:00,80.3,64.2,29.81,East,88,3.0,3.0,58,0.00,,FEW250,0.00,VWS V14.01,2013-07-20 16:05:00,
2013-07-20 11:07:00,79.3,64.2,29.81,ESE,112,2.0,5.0,60,0.00,,FEW040,0.00,VWS V14.01,2013-07-20 16:07:00,
2013-07-20 11:10:00,78.9,64.8,29.81,ESE,112,0.0,3.0,62,0.00,,FEW250,0.00,VWS V14.01,2013-07-20 16:10:00,
2013-07-20 11:12:00,78.6,64.0,29.81,ESE,112,0.0,0.0,61,0.00,,FEW040,0.00,VWS V14.01,2013-07-20 16:12:00,
2013-07-20 11:15:00,78.6,64.5,29.81,ENE,63,0.0,0.0,62,0.00,,FEW250,0.00,VWS V14.01,2013-07-20 16:15:00,
2013-07-20 11:17:00,78.4,64.3,29.81,ENE,72,0.0,3.0,62,0.00,,FEW040,0.00,VWS V14.01,2013-07-20 16:17:00,
2013-07-20 11:20:00,78.0,64.8,29.81,ENE,70,2.0,3.0,64,0.00,,FEW250,0.00,VWS V14.01,2013-07-20 16:20:00,
2013-07-20 11:22:00,76.6,63.5,29.82,ENE,59,5.0,15.0,64,0.00,,FEW040,0.00,VWS V14.01,2013-07-20 16:22:00,
2013-07-20 11:25:00,75.2,63.1,29.82,NNE,17,4.0,15.0,66,0.00,,FEW250,0.00,VWS V14.01,2013-07-20 16:25:00,
2013-07-20 11:27:00,73.5,63.1,29.82,North,360,11.0,13.0,70,0.00,,FEW040,0.00,VWS V14.01,2013-07-20 16:27:00,
2013-07-20 11:30:00,72.8,62.9,29.82,NE,41,10.0,16.0,71,0.00,,FEW250,0.00,VWS V14.01,2013-07-20 16:30:00,
2013-07-20 11:32:00,72.1,63.0,29.82,North,355,6.0,17.0,73,0.00,,FEW040,0.00,VWS V14.01,2013-07-20 16:32:00,
2013-07-20 11:35:00,72.0,62.9,29.82,North,9,10.0,17.0,73,0.00,,FEW250,0.00,VWS V14.01,2013-07-20 16:35:00,
2013-07-20 11:38:00,71.9,63.2,29.82,East,86,3.0,15.0,74,0.00,,FEW040,0.00,VWS V14.01,2013-07-20 16:38:00,
2013-07-20 11:40:00,72.0,63.3,29.82,North,360,10.0,15.0,74,0.00,,FEW250,0.00,VWS V14.01,2013-07-20 16:40:00,
2013-07-20 11:43:00,71.9,62.8,29.82,NE,49,5.0,10.0,73,0.00,,FEW040,0.00,VWS V14.01,2013-07-20 16:43:00,
2013-07-20 11:45:00,71.9,62.8,29.82,North,360,6.0,10.0,73,0.00,,FEW250,0.00,VWS V14.01,2013-07-20 16:45:00,
2013-07-20 11:48:00,72.0,62.9,29.82,NE,52,7.0,9.0,73,0.00,,FEW040,0.00,VWS V14.01,2013-07-20 16:48:00,
2013-07-20 11:50:00,72.0,62.9,29.82,NE,41,14.0,14.0,73,0.00,,FEW250,0.00,VWS V14.01,2013-07-20 16:50:00,
2013-07-20 11:53:00,71.4,62.3,29.83,NE,55,13.0,14.0,73,0.00,,FEW040,0.00,VWS V14.01,2013-07-20 16:53:00,
2013-07-20 11:55:00,71.0,61.9,29.83,NE,46,7.0,14.0,73,0.00,,FEW250,0.00,VWS V14.01,2013-07-20 16:55:00,
2013-07-20 11:58:00,69.8,61.9,29.83,North,360,13.0,15.0,76,0.00,,FEW040,0.00,VWS V14.01,2013-07-20 16:58:00,
2013-07-20 12:00:00,69.5,61.6,29.83,North,360,10.0,18.0,76,0.00,,FEW250,0.00,VWS V14.01,2013-07-20 17:00:00,
2013-07-20 12:03:00,68.8,61.3,29.83,ENE,68,10.0,19.0,77,0.00,,SCT075,0.00,VWS V14.01,2013-07-20 17:03:00,
2013-07-20 12:05:00,68.6,61.5,29.83,NE,56,14.0,19.0,78,0.00,,FEW250,0.00,VWS V14.01,2013-07-20 17:05:00,
2013-07-20 12:08:00,68.4,61.6,29.83,NE,47,13.0,17.0,79,0.00,,SCT075,0.00,VWS V14.01,2013-07-20 17:08:00,
2013-07-20 12:10:00,68.5,61.7,29.83,NNE,24,8.0,18.0,79,0.00,,FEW250,0.00,VWS V14.01,2013-07-20 17:10:00,
2013-07-20 12:13:00,68.8,62.0,29.83,NNE,28,12.0,18.0,79,0.00,,SCT075,0.00,VWS V14.01,2013-07-20 17:13:00,
2013-07-20 12:15:00,68.9,62.1,29.83,NNE,30,12.0,19.0,79,0.00,,FEW250,0.00,VWS V14.01,2013-07-20 17:15:00,
2013-07-20 12:18:00,68.6,61.8,29.83,North,360,9.0,19.0,79,0.00,,SCT075,0.00,VWS V14.01,2013-07-20 17:18:00,
2013-07-20 12:20:00,68.6,61.8,29.83,North,360,11.0,19.0,79,0.00,,FEW250,0.00,VWS V14.01,2013-07-20 17:20:00,
2013-07-20 12:23:00,68.7,61.6,29.83,NNE,17,16.0,21.0,78,0.00,,SCT075,0.00,VWS V14.01,2013-07-20 17:23:00,
2013-07-20 12:25:00,68.7,61.6,29.83,ENE,60,12.0,21.0,78,0.00,,FEW250,0.00,VWS V14.01,2013-07-20 17:25:00,
2013-07-20 12:28:00,67.8,60.7,29.83,North,360,8.0,22.0,78,0.00,,SCT075,0.00,VWS V14.01,2013-07-20 17:28:00,
2013-07-20 12:30:00,67.6,60.9,29.83,NE,50,2.0,22.0,79,0.00,,FEW250,0.00,VWS V14.01,2013-07-20 17:30:00,
2013-07-20 12:33:00,67.0,60.6,29.83,NE,34,2.0,19.0,80,0.00,,SCT075,0.00,VWS V14.01,2013-07-20 17:33:00,
2013-07-20 12:35:00,67.0,61.0,29.83,NNE,28,13.0,19.0,81,0.00,,FEW250,0.00,VWS V14.01,2013-07-20 17:35:00,
2013-07-20 12:38:00,66.5,60.8,29.83,North,360,15.0,21.0,82,0.00,,SCT075,0.00,VWS V14.01,2013-07-20 17:38:00,
2013-07-20 12:40:00,66.5,60.8,29.83,NNE,27,10.0,20.0,82,0.00,,FEW250,0.00,VWS V14.01,2013-07-20 17:40:00,
2013-07-20 12:44:00,67.1,61.4,29.83,ENE,75,9.0,20.0,82,0.00,,SCT075,0.00,VWS V14.01,2013-07-20 17:44:00,
2013-07-20 12:45:00,67.2,61.5,29.83,NNE,28,10.0,20.0,82,0.00,,FEW250,0.00,VWS V14.01,2013-07-20 17:45:00,
2013-07-20 12:49:00,67.0,61.0,29.83,North,360,13.0,18.0,81,0.00,,SCT075,0.00,VWS V14.01,2013-07-20 17:49:00,
2013-07-20 12:50:00,67.0,61.3,29.83,North,360,9.0,18.0,82,0.00,,FEW250,0.00,VWS V14.01,2013-07-20 17:50:00,
2013-07-20 12:54:00,66.5,60.8,29.83,NE,34,10.0,20.0,82,0.00,,SCT075,0.00,VWS V14.01,2013-07-20 17:54:00,
2013-07-20 12:55:00,66.4,60.7,29.83,NE,35,16.0,20.0,82,0.00,,FEW250,0.00,VWS V14.01,2013-07-20 17:55:00,
2013-07-20 12:59:00,66.2,60.5,29.83,NNE,23,9.0,20.0,82,0.00,,SCT075,0.00,VWS V14.01,2013-07-20 17:59:00,
2013-07-20 13:00:00,66.2,60.2,29.83,NNE,26,7.0,20.0,81,0.00,,FEW250,0.00,VWS V14.01,2013-07-20 18:00:00,
2013-07-20 13:04:00,66.0,60.0,29.84,North,360,12.0,21.0,81,0.00,,SCT080,0.00,VWS V14.01,2013-07-20 18:04:00,
2013-07-20 13:05:00,66.1,60.1,29.84,NE,44,15.0,21.0,81,0.00,,FEW250,0.00,VWS V14.01,2013-07-20 18:05:00,
2013-07-20 13:09:00,66.1,59.8,29.84,NNE,32,11.0,21.0,80,0.00,,SCT080,0.00,VWS V14.01,2013-07-20 18:09:00,
2013-07-20 13:10:00,66.1,59.8,29.84,NE,50,12.0,21.0,80,0.00,,FEW250,0.00,VWS V14.01,2013-07-20 18:10:00,
2013-07-20 13:14:00,65.9,59.6,29.84,NE,44,11.0,18.0,80,0.00,,SCT080,0.00,VWS V14.01,2013-07-20 18:14:00,
2013-07-20 13:15:00,65.9,59.6,29.84,NE,39,9.0,18.0,80,0.00,,FEW250,0.00,VWS V14.01,2013-07-20 18:15:00,
2013-07-20 13:19:00,65.8,59.1,29.83,NE,42,13.0,18.0,79,0.00,,SCT080,0.00,VWS V14.01,2013-07-20 18:19:00,
2013-07-20 13:20:00,65.7,59.0,29.83,NE,44,7.0,18.0,79,0.00,,FEW250,0.00,VWS V14.01,2013-07-20 18:20:00,
2013-07-20 13:24:00,65.7,59.4,29.83,North,9,14.0,17.0,80,0.00,,SCT080,0.00,VWS V14.01,2013-07-20 18:24:00,
2013-07-20 13:25:00,65.7,59.4,29.83,NE,50,14.0,17.0,80,0.00,,FEW250,0.00,VWS V14.01,2013-07-20 18:25:00,
2013-07-20 13:29:00,65.6,59.3,29.83,NE,38,8.0,18.0,80,0.00,,SCT080,0.00,VWS V14.01,2013-07-20 18:29:00,
2013-07-20 13:30:00,65.6,59.3,29.83,North,360,9.0,18.0,80,0.00,,FEW250,0.00,VWS V14.01,2013-07-20 18:30:00,
2013-07-20 13:35:00,65.9,59.2,29.84,North,360,8.0,16.0,79,0.00,,BKN080,0.00,VWS V14.01,2013-07-20 18:35:00,
2013-07-20 13:40:00,65.9,59.2,29.84,NNE,13,11.0,17.0,79,0.00,,FEW250,0.00,VWS V14.01,2013-07-20 18:40:00,
2013-07-20 13:41:00,65.9,59.2,29.83,North,360,16.0,18.0,79,0.00,,BKN080,0.00,VWS V14.01,2013-07-20 18:41:00,
2013-07-20 13:45:00,65.7,59.0,29.83,NNE,23,8.0,19.0,79,0.00,,FEW250,0.00,VWS V14.01,2013-07-20 18:45:00,
2013-07-20 13:46:00,65.7,59.4,29.83,NNE,17,12.0,19.0,80,0.00,,BKN080,0.00,VWS V14.01,2013-07-20 18:46:00,
2013-07-20 13:50:00,65.8,59.8,29.83,North,360,11.0,19.0,81,0.00,,FEW250,0.00,VWS V14.01,2013-07-20 18:50:00,
2013-07-20 13:51:00,65.8,59.8,29.83,NE,34,12.0,17.0,81,0.00,,BKN080,0.00,VWS V14.01,2013-07-20 18:51:00,
2013-07-20 13:55:00,66.4,60.4,29.83,North,351,12.0,17.0,81,0.00,,FEW250,0.00,VWS V14.01,2013-07-20 18:55:00,
2013-07-20 13:56:00,66.7,60.7,29.83,NE,35,3.0,17.0,81,0.00,,BKN080,0.00,VWS V14.01,2013-07-20 18:56:00,
2013-07-20 14:00:00,67.6,61.2,29.83,NNW,327,5.0,17.0,80,0.00,,FEW250,0.00,VWS V14.01,2013-07-20 19:00:00,
2013-07-20 14:01:00,68.1,61.7,29.83,NNE,26,9.0,17.0,80,0.00,,SCT080,0.00,VWS V14.01,2013-07-20 19:01:00,
2013-07-20 14:05:00,68.6,61.1,29.83,North,360,6.0,18.0,77,0.00,,FEW250,0.00,VWS V14.01,2013-07-20 19:05:00,
2013-07-20 14:06:00,68.6,61.1,29.83,North,360,14.0,19.0,77,0.00,,SCT080,0.00,VWS V14.01,2013-07-20 19:06:00,
2013-07-20 14:10:00,68.3,60.8,29.83,NNE,21,12.0,19.0,77,0.00,,FEW250,0.00,VWS V14.01,2013-07-20 19:10:00,
2013-07-20 14:12:00,68.5,61.0,29.84,NE,39,12.0,19.0,77,0.00,,SCT080,0.00,VWS V14.01,2013-07-20 19:12:00,
2013-07-20 14:15:00,68.8,61.3,29.84,NE,52,11.0,19.0,77,0.00,,FEW250,0.00,VWS V14.01,2013-07-20 19:15:00,
2013-07-20 14:17:00,69.0,61.5,29.83,NE,42,13.0,19.0,77,0.00,,SCT080,0.00,VWS V14.01,2013-07-20 19:17:00,
2013-07-20 14:20:00,69.2,61.7,29.83,NE,49,10.0,19.0,77,0.00,,FEW250,0.00,VWS V14.01,2013-07-20 19:20:00,
2013-07-20 14:22:00,69.3,61.4,29.84,NE,34,11.0,19.0,76,0.00,,SCT080,0.00,VWS V14.01,2013-07-20 19:22:00,
2013-07-20 14:25:00,69.1,60.8,29.84,NNE,29,11.0,19.0,75,0.00,,FEW250,0.00,VWS V14.01,2013-07-20 19:25:00,
2013-07-20 14:28:00,69.0,60.8,29.83,NE,43,15.0,18.0,75,0.00,,SCT080,0.00,VWS V14.01,2013-07-20 19:28:00,
2013-07-20 14:30:00,68.8,60.6,29.84,North,350,9.0,17.0,75,0.00,,FEW250,0.00,VWS V14.01,2013-07-20 19:30:00,
2013-07-20 14:33:00,68.8,60.6,29.83,ENE,58,18.0,18.0,75,0.00,,SCT080,0.00,VWS V14.01,2013-07-20 19:33:00,
2013-07-20 14:35:00,68.8,60.6,29.83,ENE,62,12.0,18.0,75,0.00,,FEW250,0.00,VWS V14.01,2013-07-20 19:35:00,
2013-07-20 14:39:00,68.3,60.1,29.84,NE,41,18.0,18.0,75,0.00,,SCT080,0.00,VWS V14.01,2013-07-20 19:39:00,
2013-07-20 14:40:00,68.3,60.1,29.84,NE,41,18.0,18.0,75,0.00,,FEW250,0.00,VWS V14.01,2013-07-20 19:40:00,
2013-07-20 14:44:00,68.1,59.9,29.83,North,360,12.0,20.0,75,0.00,,SCT080,0.00,VWS V14.01,2013-07-20 19:44:00,
2013-07-20 14:45:00,68.1,59.9,29.83,North,360,12.0,20.0,75,0.00,,FEW250,0.00,VWS V14.01,2013-07-20 19:45:00,
2013-07-20 14:50:00,68.0,60.2,29.83,NE,34,13.0,18.0,76,0.00,,SCT080,0.00,VWS V14.01,2013-07-20 19:50:00,
2013-07-20 14:55:00,67.8,60.0,29.83,North,360,12.0,17.0,76,0.00,,SCT080,0.00,VWS V14.01,2013-07-20 19:55:00,
2013-07-20 15:00:00,67.9,60.1,29.83,NE,40,9.0,15.0,76,0.00,,SCT080,0.00,VWS V14.01,2013-07-20 20:00:00,
2013-07-20 15:05:00,67.6,59.8,29.83,NNE,12,10.0,16.0,76,0.00,,SCT110,0.00,VWS V14.01,2013-07-20 20:05:00,
2013-07-20 15:10:00,67.1,59.3,29.83,NE,40,15.0,16.0,76,0.00,,FEW250,0.00,VWS V14.01,2013-07-20 20:10:00,
2013-07-20 15:11:00,66.8,59.4,29.83,NNE,32,13.0,16.0,77,0.00,,SCT110,0.00,VWS V14.01,2013-07-20 20:11:00,
2013-07-20 15:15:00,66.3,59.2,29.83,NE,43,10.0,16.0,78,0.00,,CLR,0.00,VWS V14.01,2013-07-20 20:15:00,
2013-07-20 15:16:00,66.2,59.5,29.83,ENE,60,12.0,15.0,79,0.00,,SCT110,0.00,VWS V14.01,2013-07-20 20:16:00,
2013-07-20 15:20:00,66.0,59.3,29.83,ENE,61,5.0,13.0,79,0.00,,FEW250,0.00,VWS V14.01,2013-07-20 20:20:00,
2013-07-20 15:22:00,66.1,59.4,29.83,NNW,335,3.0,13.0,79,0.00,,SCT110,0.00,VWS V14.01,2013-07-20 20:22:00,
2013-07-20 15:25:00,66.6,59.5,29.83,NE,42,14.0,15.0,78,0.00,,FEW250,0.00,VWS V14.01,2013-07-20 20:25:00,
2013-07-20 15:28:00,67.0,59.6,29.83,NNE,22,8.0,15.0,77,0.00,,SCT110,0.00,VWS V14.01,2013-07-20 20:28:00,
2013-07-20 15:30:00,67.3,59.8,29.83,NNE,24,5.0,13.0,77,0.00,,CLR,0.00,VWS V14.01,2013-07-20 20:30:00,
2013-07-20 15:33:00,67.7,59.5,29.83,NNE,21,8.0,15.0,75,0.00,,SCT110,0.00,VWS V14.01,2013-07-20 20:33:00,
2013-07-20 15:35:00,67.8,59.6,29.83,East,86,0.0,16.0,75,0.00,,FEW250,0.00,VWS V14.01,2013-07-20 20:35:00,
2013-07-20 15:38:00,68.1,59.9,29.83,ENE,59,12.0,16.0,75,0.00,,SCT110,0.00,VWS V14.01,2013-07-20 20:38:00,
2013-07-20 15:40:00,68.2,60.0,29.83,ENE,59,9.0,16.0,75,0.00,,FEW250,0.00,VWS V14.01,2013-07-20 20:40:00,
2013-07-20 15:43:00,68.1,59.5,29.83,NE,34,14.0,17.0,74,0.00,,SCT110,0.00,VWS V14.01,2013-07-20 20:43:00,
2013-07-20 15:45:00,68.0,59.4,29.83,NNE,25,9.0,17.0,74,0.00,,CLR,0.00,VWS V14.01,2013-07-20 20:45:00,
2013-07-20 15:48:00,67.9,59.7,29.83,NNE,24,9.0,17.0,75,0.00,,SCT110,0.00,VWS V14.01,2013-07-20 20:48:00,
2013-07-20 15:50:00,67.9,59.7,29.83,NE,44,11.0,17.0,75,0.00,,FEW250,0.00,VWS V14.01,2013-07-20 20:50:00,
2013-07-20 15:54:00,68.1,60.3,29.84,NNW,345,8.0,16.0,76,0.00,,SCT110,0.00,VWS V14.01,2013-07-20 20:54:00,
2013-07-20 15:55:00,68.1,60.3,29.84,NE,49,4.0,16.0,76,0.00,,FEW250,0.00,VWS V14.01,2013-07-20 20:55:00,
2013-07-20 15:59:00,68.3,59.7,29.84,NNE,18,2.0,18.0,74,0.00,,SCT110,0.00,VWS V14.01,2013-07-20 20:59:00,
2013-07-20 16:00:00,68.3,59.7,29.84,NNE,22,9.0,18.0,74,0.00,,FEW250,0.00,VWS V14.01,2013-07-20 21:00:00,
2013-07-20 16:04:00,68.6,60.0,29.84,North,11,9.0,13.0,74,0.00,,SCT080,0.00,VWS V14.01,2013-07-20 21:04:00,
2013-07-20 16:05:00,68.6,60.0,29.84,North,11,9.0,13.0,74,0.00,,FEW250,0.00,VWS V14.01,2013-07-20 21:05:00,
2013-07-20 16:09:00,68.4,59.8,29.83,NE,42,12.0,17.0,74,0.00,,SCT080,0.00,VWS V14.01,2013-07-20 21:09:00,
2013-07-20 16:10:00,68.4,59.8,29.83,NE,42,12.0,17.0,74,0.00,,FEW250,0.00,VWS V14.01,2013-07-20 21:10:00,
2013-07-20 16:15:00,68.0,60.2,29.84,North,360,13.0,17.0,76,0.00,,SCT080,0.00,VWS V14.01,2013-07-20 21:15:00,
2013-07-20 16:20:00,68.0,60.2,29.84,North,11,6.0,18.0,76,0.00,,SCT080,0.00,VWS V14.01,2013-07-20 21:20:00,
2013-07-20 16:25:00,67.9,59.7,29.84,North,11,6.0,18.0,75,0.00,,SCT080,0.00,VWS V14.01,2013-07-20 21:25:00,
2013-07-20 16:30:00,68.1,59.9,29.84,North,360,11.0,17.0,75,0.00,,FEW250,0.00,VWS V14.01,2013-07-20 21:30:00,
2013-07-20 16:31:00,68.1,59.9,29.84,NNE,31,13.0,18.0,75,0.00,,SCT080,0.00,VWS V14.01,2013-07-20 21:31:00,
2013-07-20 16:35:00,68.0,59.8,29.84,NE,41,10.0,16.0,75,0.00,,FEW250,0.00,VWS V14.01,2013-07-20 21:35:00,
2013-07-20 16:37:00,68.0,60.2,29.84,North,360,8.0,13.0,76,0.00,,SCT080,0.00,VWS V14.01,2013-07-20 21:37:00,
2013-07-20 16:40:00,68.1,60.3,29.84,NE,44,10.0,14.0,76,0.00,,FEW250,0.00,VWS V14.01,2013-07-20 21:40:00,
2013-07-20 16:42:00,68.3,60.5,29.84,NE,55,11.0,16.0,76,0.00,,SCT080,0.00,VWS V14.01,2013-07-20 21:42:00,
2013-07-20 16:45:00,68.3,60.1,29.84,NNE,19,8.0,16.0,75,0.00,,FEW250,0.00,VWS V14.01,2013-07-20 21:45:00,
2013-07-20 16:47:00,68.0,60.2,29.84,NE,38,9.0,16.0,76,0.00,,SCT080,0.00,VWS V14.01,2013-07-20 21:47:00,
2013-07-20 16:50:00,67.8,60.0,29.84,NNE,26,9.0,14.0,76,0.00,,FEW250,0.00,VWS V14.01,2013-07-20 21:50:00,
2013-07-20 16:52:00,67.6,60.1,29.84,NNE,23,5.0,14.0,77,0.00,,SCT080,0.00,VWS V14.01,2013-07-20 21:52:00,
2013-07-20 16:55:00,67.5,60.0,29.83,NE,43,2.0,16.0,77,0.00,,FEW250,0.00,VWS V14.01,2013-07-20 21:55:00,
2013-07-20 16:58:00,67.4,60.0,29.83,NNE,12,9.0,16.0,77,0.00,,SCT080,0.00,VWS V14.01,2013-07-20 21:58:00,
2013-07-20 17:00:00,67.5,60.0,29.84,NE,50,10.0,17.0,77,0.00,,FEW250,0.00,VWS V14.01,2013-07-20 22:00:00,
2013-07-20 17:03:00,67.6,60.1,29.83,North,360,10.0,19.0,77,0.00,,BKN085,0.00,VWS V14.01,2013-07-20 22:03:00,
2013-07-20 17:05:00,67.6,60.1,29.83,NE,34,14.0,19.0,77,0.00,,FEW250,0.00,VWS V14.01,2013-07-20 22:05:00,
2013-07-20 17:08:00,67.8,59.6,29.83,NE,37,5.0,20.0,75,0.00,,BKN085,0.00,VWS V14.01,2013-07-20 22:08:00,
2013-07-20 17:10:00,67.9,59.7,29.83,North,360,10.0,20.0,75,0.00,,FEW250,0.00,VWS V14.01,2013-07-20 22:10:00,
2013-07-20 17:13:00,68.1,59.9,29.83,NNE,32,12.0,16.0,75,0.00,,BKN085,0.00,VWS V14.01,2013-07-20 22:13:00,
2013-07-20 17:15:00,68.1,59.5,29.83,NE,49,2.0,14.0,74,0.00,,FEW250,0.00,VWS V14.01,2013-07-20 22:15:00,
2013-07-20 17:19:00,68.3,59.7,29.83,NNE,30,12.0,13.0,74,0.00,,BKN085,0.00,VWS V14.01,2013-07-20 22:19:00,
2013-07-20 17:20:00,68.3,59.3,29.83,NNE,26,9.0,14.0,73,0.00,,FEW250,0.00,VWS V14.01,2013-07-20 22:20:00,
2013-07-20 17:24:00,68.2,58.8,29.83,ENE,67,4.0,16.0,72,0.00,,BKN085,0.00,VWS V14.01,2013-07-20 22:24:00,
2013-07-20 17:25:00,68.1,58.7,29.83,NE,34,9.0,16.0,72,0.00,,FEW250,0.00,VWS V14.01,2013-07-20 22:25:00,
2013-07-20 17:29:00,68.0,59.0,29.83,NE,44,7.0,14.0,73,0.00,,BKN085,0.00,VWS V14.01,2013-07-20 22:29:00,
2013-07-20 17:30:00,68.0,59.0,29.83,NNE,14,7.0,14.0,73,0.00,,CLR,0.00,VWS V14.01,2013-07-20 22:30:00,
2013-07-20 17:34:00,68.0,59.0,29.83,North,11,12.0,15.0,73,0.00,,BKN085,0.00,VWS V14.01,2013-07-20 22:34:00,
2013-07-20 17:35:00,68.0,59.0,29.83,North,11,12.0,15.0,73,0.00,,CLR,0.00,VWS V14.01,2013-07-20 22:35:00,
2013-07-20 17:39:00,67.9,59.3,29.83,NNE,13,9.0,15.0,74,0.00,,BKN085,0.00,VWS V14.01,2013-07-20 22:39:00,
2013-07-20 17:40:00,67.9,59.3,29.83,NNE,13,9.0,15.0,74,0.00,,FEW250,0.00,VWS V14.01,2013-07-20 22:40:00,
2013-07-20 17:44:00,67.8,59.2,29.83,NE,36,10.0,16.0,74,0.00,,BKN085,0.00,VWS V14.01,2013-07-20 22:44:00,
2013-07-20 17:45:00,67.8,59.2,29.83,NE,36,10.0,16.0,74,0.00,,CLR,0.00,VWS V14.01,2013-07-20 22:45:00,
2013-07-20 17:50:00,67.7,59.5,29.83,NNE,31,3.0,15.0,75,0.00,,BKN085,0.00,VWS V14.01,2013-07-20 22:50:00,
2013-07-20 17:55:00,67.3,58.7,29.84,NNE,30,11.0,19.0,74,0.00,,BKN085,0.00,VWS V14.01,2013-07-20 22:55:00,
2013-07-20 18:00:00,66.9,58.7,29.84,ENE,65,9.0,14.0,75,0.00,,BKN085,0.00,VWS V14.01,2013-07-20 23:00:00,
2013-07-20 18:05:00,66.7,58.9,29.84,NE,38,8.0,16.0,76,0.00,,BKN150,0.00,VWS V14.01,2013-07-20 23:05:00,
2013-07-20 18:10:00,66.4,59.0,29.84,NNW,346,0.0,15.0,77,0.00,,BKN150,0.00,VWS V14.01,2013-07-20 23:10:00,
2013-07-20 18:15:00,66.4,59.0,29.84,North,9,8.0,13.0,77,0.00,,BKN150,0.00,VWS V14.01,2013-07-20 23:15:00,
2013-07-20 18:20:00,66.6,59.2,29.84,ENE,63,3.0,11.0,77,0.00,,BKN150,0.00,VWS V14.01,2013-07-20 23:20:00,
2013-07-20 18:25:00,66.9,58.7,29.84,NE,43,9.0,16.0,75,0.00,,FEW250,0.00,VWS V14.01,2013-07-20 23:25:00,
2013-07-20 18:26:00,66.9,58.7,29.84,NNE,30,9.0,16.0,75,0.00,,BKN150,0.00,VWS V14.01,2013-07-20 23:26:00,
2013-07-20 18:30:00,67.1,58.9,29.84,North,360,4.0,14.0,75,0.00,,FEW250,0.00,VWS V14.01,2013-07-20 23:30:00,
2013-07-20 18:31:00,67.2,59.0,29.84,North,11,7.0,14.0,75,0.00,,BKN150,0.00,VWS V14.01,2013-07-20 23:31:00,
2013-07-20 18:35:00,67.3,58.7,29.84,NNE,23,4.0,13.0,74,0.00,,FEW250,0.00,VWS V14.01,2013-07-20 23:35:00,
2013-07-20 18:36:00,67.4,58.8,29.84,NE,34,8.0,13.0,74,0.00,,BKN150,0.00,VWS V14.01,2013-07-20 23:36:00,
2013-07-20 18:40:00,67.4,58.8,29.84,NE,45,0.0,16.0,74,0.00,,FEW250,0.00,VWS V14.01,2013-07-20 23:40:00,
2013-07-20 18:42:00,67.4,59.2,29.84,ENE,66,7.0,11.0,75,0.00,,BKN150,0.00,VWS V14.01,2013-07-20 23:42:00,
2013-07-20 18:45:00,67.4,58.8,29.84,NNE,26,8.0,12.0,74,0.00,,FEW250,0.00,VWS V14.01,2013-07-20 23:45:00,
2013-07-20 18:47:00,67.4,59.2,29.84,NE,40,5.0,12.0,75,0.00,,BKN150,0.00,VWS V14.01,2013-07-20 23:47:00,
2013-07-20 18:50:00,67.4,59.2,29.84,NE,53,11.0,12.0,75,0.00,,FEW250,0.00,VWS V14.01,2013-07-20 23:50:00,
2013-07-20 18:52:00,67.4,58.8,29.84,NE,39,11.0,14.0,74,0.00,,BKN150,0.00,VWS V14.01,2013-07-20 23:52:00,
2013-07-20 18:55:00,67.4,58.8,29.85,NE,37,5.0,14.0,74,0.00,,FEW250,0.00,VWS V14.01,2013-07-20 23:55:00,
2013-07-20 18:57:00,67.4,58.8,29.84,NNE,15,7.0,12.0,74,0.00,,BKN150,0.00,VWS V14.01,2013-07-20 23:57:00,
2013-07-20 19:00:00,67.3,58.7,29.84,NE,46,8.0,12.0,74,0.00,,FEW250,0.00,VWS V14.01,2013-07-21 00:00:00,
2013-07-20 19:03:00,67.3,58.7,29.85,ENE,57,10.0,12.0,74,0.00,,BKN130,0.00,VWS V14.01,2013-07-21 00:03:00,
2013-07-20 19:05:00,67.2,58.6,29.85,NNE,14,1.0,12.0,74,0.00,,FEW250,0.00,VWS V14.01,2013-07-21 00:05:00,
2013-07-20 19:08:00,67.2,58.6,29.85,NNE,17,6.0,12.0,74,0.00,,BKN130,0.00,VWS V14.01,2013-07-21 00:08:00,
2013-07-20 19:10:00,67.2,59.0,29.85,NNE,28,0.0,11.0,75,0.00,,FEW250,0.00,VWS V14.01,2013-07-21 00:10:00,
2013-07-20 19:14:00,67.0,58.5,29.85,NNE,32,6.0,12.0,74,0.00,,BKN130,0.00,VWS V14.01,2013-07-21 00:14:00,
2013-07-20 19:15:00,67.0,58.5,29.85,NE,38,7.0,12.0,74,0.00,,FEW250,0.00,VWS V14.01,2013-07-21 00:15:00,
2013-07-20 19:19:00,66.9,58.0,29.86,North,360,6.0,12.0,73,0.00,,BKN130,0.00,VWS V14.01,2013-07-21 00:19:00,
2013-07-20 19:20:00,66.9,58.0,29.86,North,360,6.0,12.0,73,0.00,,FEW250,0.00,VWS V14.01,2013-07-21 00:20:00,
2013-07-20 19:24:00,66.9,58.0,29.86,NE,44,1.0,13.0,73,0.00,,BKN130,0.00,VWS V14.01,2013-07-21 00:24:00,
2013-07-20 19:25:00,66.9,58.0,29.86,NNE,31,1.0,13.0,73,0.00,,FEW250,0.00,VWS V14.01,2013-07-21 00:25:00,
2013-07-20 19:30:00,66.9,58.3,29.86,NNE,20,5.0,11.0,74,0.00,,BKN130,0.00,VWS V14.01,2013-07-21 00:30:00,
2013-07-20 19:35:00,66.7,58.2,29.86,North,355,7.0,11.0,74,0.00,,BKN130,0.00,VWS V14.01,2013-07-21 00:35:00,
2013-07-20 19:40:00,66.8,57.9,29.86,NNE,26,8.0,10.0,73,0.00,,BKN130,0.00,VWS V14.01,2013-07-21 00:40:00,
2013-07-20 19:45:00,66.8,58.3,29.86,NNE,21,7.0,10.0,74,0.00,,BKN130,0.00,VWS V14.01,2013-07-21 00:45:00,
2013-07-20 19:50:00,66.8,57.9,29.86,NNE,32,0.0,8.0,73,0.00,,FEW250,0.00,VWS V14.01,2013-07-21 00:50:00,
2013-07-20 19:51:00,66.8,57.9,29.86,NNE,32,6.0,9.0,73,0.00,,BKN130,0.00,VWS V14.01,2013-07-21 00:51:00,
2013-07-20 19:55:00,66.8,58.3,29.86,NE,53,4.0,9.0,74,0.00,,CLR,0.00,VWS V14.01,2013-07-21 00:55:00,
2013-07-20 19:56:00,66.8,57.9,29.86,NNE,22,6.0,12.0,73,0.00,,BKN130,0.00,VWS V14.01,2013-07-21 00:56:00,
2013-07-20 20:00:00,66.7,58.2,29.86,NNW,346,0.0,14.0,74,0.00,,FEW250,0.00,VWS V14.01,2013-07-21 01:00:00,
2013-07-20 20:01:00,66.7,58.2,29.86,NNE,23,0.0,9.0,74,0.00,,BKN130,0.00,VWS V14.01,2013-07-21 01:01:00,
2013-07-20 20:05:00,66.6,58.1,29.86,NNE,28,3.0,7.0,74,0.00,,FEW250,0.00,VWS V14.01,2013-07-21 01:05:00,
2013-07-20 20:06:00,66.6,58.1,29.86,NE,55,0.0,9.0,74,0.00,,BKN130,0.00,VWS V14.01,2013-07-21 01:06:00,
2013-07-20 20:10:00,66.5,58.0,29.86,NE,34,5.0,9.0,74,0.00,,FEW250,0.00,VWS V14.01,2013-07-21 01:10:00,
2013-07-20 20:11:00,66.5,58.3,29.86,NE,36,5.0,9.0,75,0.00,,BKN130,0.00,VWS V14.01,2013-07-21 01:11:00,
2013-07-20 20:15:00,66.4,58.2,29.86,NNE,23,0.0,9.0,75,0.00,,CLR,0.00,VWS V14.01,2013-07-21 01:15:00,
2013-07-20 20:18:00,66.3,58.5,29.86,NNE,17,8.0,11.0,76,0.00,,BKN130,0.00,VWS V14.01,2013-07-21 01:18:00,
2013-07-20 20:20:00,66.2,58.4,29.86,North,11,3.0,11.0,76,0.00,,FEW250,0.00,VWS V14.01,2013-07-21 01:20:00,
2013-07-20 20:23:00,66.2,58.4,29.86,NNE,30,0.0,8.0,76,0.00,,BKN130,0.00,VWS V14.01,2013-07-21 01:23:00,
2013-07-20 20:25:00,66.1,58.3,29.86,NNE,22,0.0,6.0,76,0.00,,CLR,0.00,VWS V14.01,2013-07-21 01:25:00,
2013-07-20 20:29:00,66.0,58.2,29.87,NNE,30,0.0,7.0,76,0.00,,BKN130,0.00,VWS V14.01,2013-07-21 01:29:00,
2013-07-20 20:30:00,66.1,58.3,29.87,NNE,30,0.0,7.0,76,0.00,,FEW250,0.00,VWS V14.01,2013-07-21 01:30:00,
2013-07-20 20:34:00,66.0,58.6,29.87,NNE,28,0.0,8.0,77,0.00,,BKN130,0.00,VWS V14.01,2013-07-21 01:34:00,
2013-07-20 20:35:00,66.0,58.6,29.87,NNE,25,5.0,8.0,77,0.00,,CLR,0.00,VWS V14.01,2013-07-21 01:35:00,
2013-07-20 20:40:00,66.0,58.2,29.87,NNE,30,7.0,10.0,76,0.00,,BKN130,0.00,VWS V14.01,2013-07-21 01:40:00,
2013-07-20 20:45:00,66.1,58.3,29.87,NE,40,1.0,9.0,76,0.00,,CLR,0.00,VWS V14.01,2013-07-21 01:45:00,
2013-07-20 20:46:00,66.1,58.3,29.87,North,360,6.0,10.0,76,0.00,,BKN130,0.00,VWS V14.01,2013-07-21 01:46:00,
2013-07-20 20:50:00,66.1,58.3,29.87,NE,34,0.0,10.0,76,0.00,,CLR,0.00,VWS V14.01,2013-07-21 01:50:00,
2013-07-20 20:52:00,66.0,58.2,29.87,NNE,31,7.0,10.0,76,0.00,,BKN130,0.00,VWS V14.01,2013-07-21 01:52:00,
2013-07-20 20:55:00,65.9,58.1,29.87,NE,36,0.0,10.0,76,0.00,,FEW250,0.00,VWS V14.01,2013-07-21 01:55:00,
2013-07-20 20:57:00,65.9,58.5,29.87,NNE,21,7.0,9.0,77,0.00,,BKN130,0.00,VWS V14.01,2013-07-21 01:57:00,
2013-07-20 21:00:00,65.8,58.4,29.88,NNE,30,5.0,9.0,77,0.00,,CLR,0.00,VWS V14.01,2013-07-21 02:00:00,
2013-07-20 21:03:00,65.8,58.4,29.87,NE,36,4.0,8.0,77,0.00,,SCT250,0.00,VWS V14.01,2013-07-21 02:03:00,
2013-07-20 21:05:00,65.8,58.4,29.88,NE,46,4.0,11.0,77,0.00,,CLR,0.00,VWS V14.01,2013-07-21 02:05:00,
2013-07-20 21:08:00,65.8,58.4,29.88,NNE,21,5.0,10.0,77,0.00,,SCT250,0.00,VWS V14.01,2013-07-21 02:08:00,
2013-07-20 21:10:00,65.8,58.4,29.88,NE,46,6.0,10.0,77,0.00,,CLR,0.00,VWS V14.01,2013-07-21 02:10:00,
2013-07-20 21:14:00,65.7,58.3,29.88,NNE,29,5.0,10.0,77,0.00,,SCT250,0.00,VWS V14.01,2013-07-21 02:14:00,
2013-07-20 21:15:00,65.7,58.3,29.88,NNE,29,5.0,10.0,77,0.00,,CLR,0.00,VWS V14.01,2013-07-21 02:15:00,
2013-07-20 21:20:00,65.8,58.4,29.89,NNE,32,0.0,10.0,77,0.00,,SCT250,0.00,VWS V14.01,2013-07-21 02:20:00,
2013-07-20 21:25:00,65.9,58.5,29.89,NNE,25,0.0,7.0,77,0.00,,SCT250,0.00,VWS V14.01,2013-07-21 02:25:00,
2013-07-20 21:30:00,65.9,58.1,29.89,NE,43,0.0,8.0,76,0.00,,CLR,0.00,VWS V14.01,2013-07-21 02:30:00,
2013-07-20 21:31:00,66.0,58.2,29.90,NNE,13,0.0,8.0,76,0.00,,SCT250,0.00,VWS V14.01,2013-07-21 02:31:00,
2013-07-20 21:35:00,66.0,58.2,29.90,NNE,29,0.0,8.0,76,0.00,,CLR,0.00,VWS V14.01,2013-07-21 02:35:00,
2013-07-20 21:37:00,66.1,58.3,29.90,NNE,20,6.0,9.0,76,0.00,,SCT250,0.00,VWS V14.01,2013-07-21 02:37:00,
2013-07-20 21:40:00,66.1,58.3,29.90,NNE,28,0.0,9.0,76,0.00,,CLR,0.00,VWS V14.01,2013-07-21 02:40:00,
2013-07-20 21:42:00,66.1,58.3,29.90,NE,35,0.0,7.0,76,0.00,,SCT250,0.00,VWS V14.01,2013-07-21 02:42:00,
2013-07-20 21:45:00,66.0,58.2,29.90,NE,36,0.0,0.0,76,0.00,,CLR,0.00,VWS V14.01,2013-07-21 02:45:00,
2013-07-20 21:48:00,66.0,58.2,29.90,North,11,2.0,8.0,76,0.00,,SCT250,0.00,VWS V14.01,2013-07-21 02:48:00,
2013-07-20 21:50:00,66.0,58.2,29.90,NE,51,0.0,8.0,76,0.00,,FEW250,0.00,VWS V14.01,2013-07-21 02:50:00,
2013-07-20 21:53:00,66.0,58.2,29.90,North,11,0.0,10.0,76,0.00,,SCT250,0.00,VWS V14.01,2013-07-21 02:53:00,
2013-07-20 21:55:00,66.0,58.2,29.90,NNE,26,0.0,10.0,76,0.00,,CLR,0.00,VWS V14.01,2013-07-21 02:55:00,
2013-07-20 22:00:00,66.0,58.6,29.90,NE,50,0.0,7.0,77,0.00,,SCT250,0.00,VWS V14.01,2013-07-21 03:00:00,
2013-07-20 22:05:00,65.9,58.5,29.90,NNE,30,0.0,7.0,77,0.00,,BKN250,0.00,VWS V14.01,2013-07-21 03:05:00,
2013-07-20 22:10:00,65.9,58.1,29.90,NE,40,0.0,0.0,76,0.00,,BKN250,0.00,VWS V14.01,2013-07-21 03:10:00,
2013-07-20 22:15:00,66.1,58.3,29.89,ENE,70,0.0,5.0,76,0.00,,BKN250,0.00,VWS V14.01,2013-07-21 03:15:00,
2013-07-20 22:20:00,66.1,58.3,29.89,NE,51,1.0,7.0,76,0.00,,BKN250,0.00,VWS V14.01,2013-07-21 03:20:00,
2013-07-20 22:25:00,66.3,58.5,29.90,NE,39,4.0,7.0,76,0.00,,BKN250,0.00,VWS V14.01,2013-07-21 03:25:00,
2013-07-20 22:30:00,66.2,58.4,29.90,NNE,33,0.0,7.0,76,0.00,,FEW250,0.00,VWS V14.01,2013-07-21 03:30:00,
2013-07-20 22:31:00,66.3,58.5,29.90,ENE,58,0.0,7.0,76,0.00,,BKN250,0.00,VWS V14.01,2013-07-21 03:31:00,
2013-07-20 22:35:00,66.3,58.5,29.90,NE,56,5.0,5.0,76,0.00,,FEW250,0.00,VWS V14.01,2013-07-21 03:35:00,
2013-07-20 22:36:00,66.3,58.5,29.90,NE,56,0.0,8.0,76,0.00,,BKN250,0.00,VWS V14.01,2013-07-21 03:36:00,
2013-07-20 22:40:00,66.4,58.2,29.90,ENE,71,0.0,8.0,75,0.00,,FEW250,0.00,VWS V14.01,2013-07-21 03:40:00,
2013-07-20 22:41:00,66.4,58.2,29.90,NNE,24,0.0,7.0,75,0.00,,BKN250,0.00,VWS V14.01,2013-07-21 03:41:00,
2013-07-20 22:45:00,66.4,58.2,29.90,NNE,18,6.0,8.0,75,0.00,,FEW250,0.00,VWS V14.01,2013-07-21 03:45:00,
2013-07-20 22:46:00,66.4,58.2,29.90,NE,34,0.0,8.0,75,0.00,,BKN250,0.00,VWS V14.01,2013-07-21 03:46:00,
2013-07-20 22:50:00,66.4,58.2,29.90,NNE,14,6.0,8.0,75,0.00,,FEW250,0.00,VWS V14.01,2013-07-21 03:50:00,
2013-07-20 22:51:00,66.4,58.2,29.90,NE,34,0.0,8.0,75,0.00,,BKN250,0.00,VWS V14.01,2013-07-21 03:51:00,
2013-07-20 22:55:00,66.5,58.7,29.90,NNE,13,1.0,5.0,76,0.00,,CLR,0.00,VWS V14.01,2013-07-21 03:55:00,
2013-07-20 22:56:00,66.4,58.6,29.90,NNE,30,3.0,7.0,76,0.00,,BKN250,0.00,VWS V14.01,2013-07-21 03:56:00,
2013-07-20 23:00:00,66.4,58.6,29.90,NE,40,0.0,8.0,76,0.00,,FEW250,0.00,VWS V14.01,2013-07-21 04:00:00,
2013-07-20 23:01:00,66.4,58.6,29.90,NNE,31,0.0,8.0,76,0.00,,SCT250,0.00,VWS V14.01,2013-07-21 04:01:00,
2013-07-20 23:02:00,66.4,58.6,29.90,NNE,19,0.0,7.0,76,0.00,,SCT250,0.00,VWS V14.01,2013-07-21 04:02:00,
2013-07-20 23:03:00,66.4,58.6,29.89,NNE,27,1.0,4.0,76,0.00,,SCT250,0.00,VWS V14.01,2013-07-21 04:03:00,
2013-07-20 23:05:00,66.3,58.5,29.89,NNE,30,0.0,6.0,76,0.00,,FEW250,0.00,VWS V14.01,2013-07-21 04:05:00,
2013-07-20 23:06:00,66.3,58.5,29.89,NE,34,0.0,6.0,76,0.00,,SCT250,0.00,VWS V14.01,2013-07-21 04:06:00,
2013-07-20 23:08:00,66.3,58.5,29.90,NNE,27,4.0,6.0,76,0.00,,SCT250,0.00,VWS V14.01,2013-07-21 04:08:00,
2013-07-20 23:10:00,66.3,58.5,29.90,ENE,63,1.0,6.0,76,0.00,,FEW250,0.00,VWS V14.01,2013-07-21 04:10:00,
2013-07-20 23:13:00,66.2,58.8,29.89,NNE,24,0.0,5.0,77,0.00,,SCT250,0.00,VWS V14.01,2013-07-21 04:13:00,
2013-07-20 23:15:00,66.2,58.8,29.89,ENE,67,7.0,8.0,77,0.00,,FEW250,0.00,VWS V14.01,2013-07-21 04:15:00,
2013-07-20 23:19:00,66.1,58.7,29.89,NNE,22,0.0,8.0,77,0.00,,SCT250,0.00,VWS V14.01,2013-07-21 04:19:00,
2013-07-20 23:20:00,66.1,58.7,29.89,NE,34,0.0,7.0,77,0.00,,FEW250,0.00,VWS V14.01,2013-07-21 04:20:00,
2013-07-20 23:24:00,66.0,58.6,29.89,NE,37,0.0,7.0,77,0.00,,SCT250,0.00,VWS V14.01,2013-07-21 04:24:00,
2013-07-20 23:25:00,66.0,58.6,29.89,NNE,28,0.0,7.0,77,0.00,,FEW250,0.00,VWS V14.01,2013-07-21 04:25:00,
2013-07-20 23:29:00,66.1,58.7,29.90,NNE,26,4.0,7.0,77,0.00,,SCT250,0.00,VWS V14.01,2013-07-21 04:29:00,
2013-07-20 23:30:00,66.1,58.7,29.90,NNE,26,0.0,7.0,77,0.00,,FEW250,0.00,VWS V14.01,2013-07-21 04:30:00,
2013-07-20 23:34:00,66.2,58.4,29.89,NNE,29,5.0,10.0,76,0.00,,SCT250,0.00,VWS V14.01,2013-07-21 04:34:00,
2013-07-20 23:35:00,66.2,58.4,29.89,North,349,2.0,10.0,76,0.00,,FEW250,0.00,VWS V14.01,2013-07-21 04:35:00,
2013-07-20 23:39:00,66.4,58.6,29.89,NNE,27,8.0,11.0,76,0.00,,SCT250,0.00,VWS V14.01,2013-07-21 04:39:00,
2013-07-20 23:40:00,66.4,58.6,29.89,NNE,15,7.0,11.0,76,0.00,,FEW250,0.00,VWS V14.01,2013-07-21 04:40:00,
2013-07-20 23:44:00,66.6,58.8,29.89,NE,40,5.0,10.0,76,0.00,,SCT250,0.00,VWS V14.01,2013-07-21 04:44:00,
2013-07-20 23:45:00,66.6,58.4,29.89,NE,47,0.0,10.0,75,0.00,,FEW250,0.00,VWS V14.01,2013-07-21 04:45:00,
2013-07-20 23:49:00,66.6,58.4,29.89,NNE,12,0.0,8.0,75,0.00,,SCT250,0.00,VWS V14.01,2013-07-21 04:49:00,
2013-07-20 23:50:00,66.6,58.4,29.89,NNE,19,0.0,8.0,75,0.00,,FEW250,0.00,VWS V14.01,2013-07-21 04:50:00,
2013-07-20 23:54:00,66.5,58.7,29.89,NNE,22,5.0,8.0,76,0.00,,SCT250,0.00,VWS V14.01,2013-07-21 04:54:00,
2013-07-20 23:55:00,66.5,58.7,29.89,NNE,13,3.0,8.0,76,0.00,,FEW250,0.00,VWS V14.01,2013-07-21 04:55:00,
2013-07-20 23:59:00,66.5,59.1,29.89,NNE,26,5.0,7.0,77,0.00,,SCT250,0.00,VWS V14.01,2013-07-21 04:59:00,